Location: Chuathbaluk
(61.5726°N, 159.2454°W)
Time: 15:42:45
(UTC+00:00)

ZACube-1 - Pass Details

Date: 25 January 2021
Orbit: 583 x 666 km, 97.6° (Epoch: 04 March)

Event Time Altitude Azimuth Distance (km) Brightness Sun altitude
Rises 18:00:16 0° 15° (NNE) 3,026 ? -8.4°
Reaches altitude 10° 18:02:53 10° 1° (N) 2,107 ? -8.1°
Maximum altitude 18:06:25 22° 311° (NW) 1,439 ? -7.7°
Drops below altitude 10° 18:09:55 10° 261° (W) 2,082 ? -7.3°
Sets 18:12:30 0° 247° (WSW) 2,980 ? -7.1°
